Location: Unspecified
(43.8044°N, 11.0278°E)
Time: 22:09:25
(UTC+02:00)

Cosmos 1674 - Visible Passes

Search period start: 25 July 2016 00:00
Search period end: 04 August 2016 00:00
Orbit: 501 x 525 km, 82.5° (Epoch: 25 July)

Date Brightness Start Highest point End Pass type
(mag) Time Alt. Az. Time Alt. Az. Time Alt. Az.
25 Jul 4.2 04:53:27 10° N 04:57:01 38° ENE 05:00:33 10° SSE visible
26 Jul 4.6 04:37:43 10° NNE 04:41:08 31° ENE 04:44:31 10° SE visible
27 Jul 5.0 04:22:02 10° NNE 04:25:14 25° ENE 04:28:24 10° SE visible
28 Jul 5.2 04:06:25 10° NNE 04:09:20 21° ENE 04:12:13 10° ESE visible
29 Jul 5.5 03:50:51 10° NNE 03:53:24 17° ENE 03:55:56 10° ESE visible
29 Jul 3.5 05:25:46 10° NNW 05:29:10 32° W 05:32:31 10° SSW visible
30 Jul 5.6 03:35:24 10° NE 03:37:28 14° ENE 03:39:31 10° ESE visible
30 Jul 3.1 05:09:47 10° NNW 05:13:20 40° W 05:16:52 10° SSW visible
31 Jul 5.7 03:20:12 10° NE 03:21:31 11° ENE 03:22:50 10° E visible
31 Jul 2.8 04:53:51 10° NNW 04:57:31 51° W 05:01:09 10° S visible
01 Aug 2.6 04:37:56 10° NNW 04:41:41 65° W 04:45:12 11° S visible
02 Aug 2.5 04:22:02 10° N 04:25:49 83° W 04:28:38 17° S visible
03 Aug 2.7 04:06:10 10° N 04:09:58 78° E 04:12:09 24° SSE visible
